When you browse on this site, cookies collect data to enhance your experience and personalize the content and advertising you see.
Visit our Privacy Policy to learn more. By continuing to use the site, you agree to this use of cookies and data.
  • In Hungary
  • List of Countries
  • For 7 days
  • Water Temperature
  • Satellite Maps
  • Weather Map
  • News
  • Weather Widgets
  • user-avatar
    Login

    Hourly Weather Bogishamol

    Today, 15 December, Saturday

    Time Temperature Precipitation Wind Pressure Humidity
    00:00 +5°C° 0 mm 2 mps 693 mmHg 31%
    01:00 +4°C° 0 mm 2 mps 693 mmHg 32%
    02:00 +4°C° 0 mm 2 mps 693 mmHg 32%
    03:00 +4°C° 0 mm 2 mps 693 mmHg 33%
    04:00 +4°C° 0 mm 2 mps 693 mmHg 34%
    05:00 +4°C° 0 mm 2 mps 693 mmHg 34%
    06:00 +4°C° 0 mm 2 mps 693 mmHg 34%
    07:00 +4°C° 0 mm 2 mps 693 mmHg 35%
    08:00 +4°C° 0 mm 2 mps 693 mmHg 35%
    09:00 +6°C° 0 mm 2 mps 693 mmHg 33%
    10:00 +7°C° 0 mm 2 mps 693 mmHg 30%
    11:00 +10°C° 0 mm 1 mps 693 mmHg 27%
    12:00 +11°C° 0 mm 1 mps 693 mmHg 26%
    13:00 +11°C° 0 mm 1 mps 692 mmHg 26%
    14:00 +12°C° 0 mm 1 mps 692 mmHg 25%
    15:00 +11°C° 0 mm 1 mps 692 mmHg 28%
    16:00 +9°C° 0 mm 1 mps 692 mmHg 30%
    17:00 +8°C° 0 mm 1 mps 692 mmHg 33%
    18:00 +8°C° 0 mm 1 mps 691 mmHg 33%
    19:00 +6°C° 0 mm 2 mps 691 mmHg 33%
    20:00 +6°C° 0 mm 2 mps 691 mmHg 34%
    21:00 +6°C° 0 mm 2 mps 691 mmHg 34%
    22:00 +7°C° 0 mm 1 mps 691 mmHg 34%
    23:00 +7°C° 0 mm 1 mps 691 mmHg 34%

    Tomorrow, 16 December, Sunday

    Time Temperature Precipitation Wind Pressure Humidity
    00:00 +6°C° 0 mm 1 mps 691 mmHg 34%
    01:00 +6°C° 0 mm 1 mps 691 mmHg 35%
    02:00 +6°C° 0 mm 1 mps 691 mmHg 35%
    03:00 +6°C° 0 mm 1 mps 692 mmHg 36%
    04:00 +5°C° 0 mm 1 mps 692 mmHg 37%
    05:00 +5°C° 0 mm 1 mps 693 mmHg 39%
    06:00 +5°C° 0 mm 1 mps 693 mmHg 41%
    07:00 +5°C° 0 mm 1 mps 694 mmHg 44%
    08:00 +5°C° 0 mm 1 mps 694 mmHg 46%
    09:00 +5°C° 0.1 mm 1 mps 695 mmHg 46%
    10:00 +6°C° 0.1 mm 1 mps 695 mmHg 46%
    11:00 +6°C° 0.1 mm 2 mps 696 mmHg 46%
    12:00 +6°C° 0.1 mm 2 mps 696 mmHg 47%
    13:00 +6°C° 0.1 mm 2 mps 696 mmHg 47%
    14:00 +6°C° 0.1 mm 2 mps 697 mmHg 48%
    15:00 +5°C° 0 mm 2 mps 697 mmHg 52%
    16:00 +4°C° 0 mm 2 mps 697 mmHg 56%
    17:00 +3°C° 0 mm 2 mps 697 mmHg 60%
    18:00 +3°C° 0 mm 2 mps 697 mmHg 61%
    19:00 +3°C° 0 mm 2 mps 697 mmHg 61%
    20:00 +3°C° 0 mm 2 mps 697 mmHg 62%
    21:00 +3°C° 0 mm 2 mps 696 mmHg 61%
    22:00 +3°C° 0 mm 2 mps 696 mmHg 60%
    23:00 +3°C° 0 mm 2 mps 695 mmHg 58%

    Day after tomorrow, 17 December, Monday

    Time Temperature Precipitation Wind Pressure Humidity
    00:00 +3°C° 0 mm 2 mps 695 mmHg 57%
    01:00 +3°C° 0 mm 2 mps 695 mmHg 55%
    02:00 +3°C° 0 mm 2 mps 694 mmHg 53%
    03:00 +3°C° 0 mm 2 mps 694 mmHg 52%
    04:00 +3°C° 0 mm 2 mps 694 mmHg 51%
    05:00 +3°C° 0 mm 2 mps 693 mmHg 50%
    06:00 +3°C° 0 mm 2 mps 693 mmHg 49%
    07:00 +3°C° 0 mm 2 mps 693 mmHg 49%
    08:00 +4°C° 0 mm 1 mps 693 mmHg 49%
    09:00 +5°C° 0 mm 1 mps 693 mmHg 46%
    10:00 +6°C° 0 mm 1 mps 693 mmHg 43%
    11:00 +7°C° 0 mm 1 mps 693 mmHg 41%
    12:00 +8°C° 0 mm 1 mps 692 mmHg 41%
    13:00 +8°C° 0 mm 1 mps 692 mmHg 41%
    14:00 +9°C° 0 mm 1 mps 692 mmHg 41%
    15:00 +8°C° 0 mm 1 mps 692 mmHg 44%
    16:00 +7°C° 0 mm 1 mps 692 mmHg 48%
    17:00 +7°C° 0 mm 1 mps 692 mmHg 52%
    18:00 +6°C° 0.1 mm 1 mps 692 mmHg 53%
    19:00 +6°C° 0.1 mm 1 mps 692 mmHg 54%
    20:00 +6°C° 0.1 mm 1 mps 692 mmHg 55%
    21:00 +6°C° 0.2 mm 1 mps 692 mmHg 57%
    22:00 +6°C° 0.2 mm 1 mps 692 mmHg 59%
    23:00 +6°C° 0.2 mm 1 mps 692 mmHg 61%

    18 December, Tuesday

    Time Temperature Precipitation Wind Pressure Humidity
    00:00 +6°C° 0.3 mm 1 mps 692 mmHg 64%
    01:00 +6°C° 0.3 mm 1 mps 691 mmHg 66%
    02:00 +4°C° 0.3 mm 2 mps 691 mmHg 69%
    03:00 +4°C° 0.3 mm 2 mps 691 mmHg 71%
    04:00 +5°C° 0.3 mm 1 mps 691 mmHg 72%
    05:00 +5°C° 0.3 mm 1 mps 690 mmHg 74%
    06:00 +5°C° 0.2 mm 1 mps 690 mmHg 75%
    07:00 +5°C° 0.2 mm 1 mps 690 mmHg 76%
    08:00 +5°C° 0.2 mm 1 mps 690 mmHg 77%
    09:00 +5°C° 0.1 mm 1 mps 691 mmHg 75%
    10:00 +5°C° 0.1 mm 2 mps 691 mmHg 73%
    11:00 +5°C° 0.1 mm 2 mps 691 mmHg 71%
    12:00 +5°C° 0 mm 2 mps 691 mmHg 69%
    13:00 +6°C° 0 mm 2 mps 691 mmHg 66%
    14:00 +6°C° 0 mm 2 mps 691 mmHg 64%
    15:00 +5°C° 0 mm 2 mps 691 mmHg 67%
    16:00 +4°C° 0 mm 2 mps 692 mmHg 70%
    17:00 +4°C° 0 mm 2 mps 692 mmHg 74%
    18:00 +3°C° 0 mm 2 mps 692 mmHg 73%
    19:00 +3°C° 0 mm 2 mps 692 mmHg 72%
    20:00 +3°C° 0 mm 2 mps 692 mmHg 71%
    21:00 +3°C° 0.1 mm 2 mps 691 mmHg 70%
    22:00 +3°C° 0.1 mm 2 mps 691 mmHg 69%
    23:00 +4°C° 0.1 mm 1 mps 691 mmHg 68%

    19 December, Wednesday

    Time Temperature Precipitation Wind Pressure Humidity
    00:00 +4°C° 0.1 mm 1 mps 691 mmHg 68%
    01:00 +4°C° 0.1 mm 1 mps 691 mmHg 69%
    02:00 +4°C° 0.1 mm 1 mps 690 mmHg 69%
    03:00 +4°C° 0.1 mm 1 mps 690 mmHg 70%
    04:00 +4°C° 0.1 mm 1 mps 690 mmHg 71%
    05:00 +4°C° 0.1 mm 1 mps 690 mmHg 71%
    06:00 +4°C° 0.1 mm 1 mps 690 mmHg 72%
    07:00 +4°C° 0.1 mm 1 mps 690 mmHg 72%
    08:00 +4°C° 0.1 mm 1 mps 690 mmHg 72%
    09:00 +4°C° 0.1 mm 1 mps 690 mmHg 70%
    10:00 +5°C° 0.1 mm 1 mps 690 mmHg 68%
    11:00 +6°C° 0.1 mm 1 mps 690 mmHg 66%
    12:00 +6°C° 0.1 mm 1 mps 690 mmHg 67%
    13:00 +6°C° 0.1 mm 1 mps 690 mmHg 68%
    14:00 +6°C° 0.1 mm 1 mps 689 mmHg 69%
    15:00 +6°C° 0.1 mm 1 mps 690 mmHg 72%
    16:00 +5°C° 0.1 mm 1 mps 690 mmHg 75%
    17:00 +5°C° 0.1 mm 1 mps 690 mmHg 79%
    18:00 +5°C° 0.1 mm 1 mps 691 mmHg 79%
    19:00 +5°C° 0.1 mm 1 mps 691 mmHg 78%
    20:00 +5°C° 0.1 mm 1 mps 691 mmHg 78%
    21:00 +5°C° 0.2 mm 1 mps 691 mmHg 79%
    22:00 +4°C° 0.2 mm 0 mps 691 mmHg 79%
    23:00 +3°C° 0.2 mm 0 mps 691 mmHg 79%

    20 December, Thursday

    Time Temperature Precipitation Wind Pressure Humidity
    00:00 +4°C° 0.2 mm 1 mps 691 mmHg 80%
    01:00 +4°C° 0.2 mm 1 mps 692 mmHg 82%
    02:00 +4°C° 0.2 mm 1 mps 692 mmHg 83%
    03:00 +4°C° 0.2 mm 1 mps 692 mmHg 84%
    04:00 +3°C° 0.2 mm 0 mps 692 mmHg 86%
    05:00 +3°C° 0.2 mm 0 mps 692 mmHg 88%
    06:00 +3°C° 0.2 mm 0 mps 692 mmHg 88%
    07:00 +3°C° 0.2 mm 0 mps 692 mmHg 89%
    08:00 +3°C° 0.2 mm 0 mps 693 mmHg 90%
    09:00 +3°C° 0.2 mm 0 mps 693 mmHg 88%
    10:00 +3°C° 0.2 mm 0 mps 693 mmHg 87%
    11:00 +5°C° 0.2 mm 1 mps 693 mmHg 85%
    12:00 +5°C° 0.2 mm 1 mps 693 mmHg 84%
    13:00 +5°C° 0.2 mm 1 mps 693 mmHg 84%
    14:00 +5°C° 0.2 mm 1 mps 692 mmHg 83%
    15:00 +5°C° 0.2 mm 1 mps 693 mmHg 85%
    16:00 +5°C° 0.2 mm 1 mps 693 mmHg 87%
    17:00 +5°C° 0.2 mm 1 mps 693 mmHg 89%
    18:00 +5°C° 0.3 mm 1 mps 693 mmHg 90%
    19:00 +4°C° 0.3 mm 1 mps 693 mmHg 91%
    20:00 +4°C° 0.3 mm 1 mps 693 mmHg 91%
    21:00 +4°C° 0.3 mm 1 mps 693 mmHg 92%
    22:00 +4°C° 0.3 mm 1 mps 693 mmHg 92%
    23:00 +3°C° 0.3 mm 0 mps 692 mmHg 92%
    Show more